Location: B?ezina
(49.8085°N, 13.6013°E)
Time: 23:57:23
(UTC+00:00)

Iridium 4 Rocket - Pass Details

Date: 19 May 2025
Orbit: 582 x 886 km, 86.9° (Epoch: 15 June)

Event Time Altitude Azimuth Distance (km) Brightness Sun altitude
Rises 19:58:36 0° 354° (N) 3,141 7.6 -9.3°
Reaches altitude 10° 20:00:50 10° 352° (N) 2,262 6.9 -9.5°
Maximum altitude 20:05:52 68° 271° (W) 852 3.9 -10.1°
Drops below altitude 10° 20:11:18 10° 189° (S) 2,434 5.7 -10.7°
Enters shadow 20:13:23 - 187° (S) 3,244 6.3 -10.9°
